Location: Alincthun
(50.7310°N, 1.8022°E)
Time: 10:25:21
(UTC+00:00)

CZ-2C R/B - Pass Details

Date: 17 February 2020
Orbit: 668 x 785 km, 98.1° (Epoch: 29 March)

Event Time Altitude Azimuth Distance (km) Brightness Sun altitude
Rises 06:17:20 0° 2° (N) 3,289 5.7 -7.7°
Reaches altitude 10° 06:20:47 10° 339° (NNW) 2,355 4.7 -7.2°
Maximum altitude 06:23:21 14° 309° (NW) 2,080 4.2 -6.8°
Drops below altitude 10° 06:25:55 10° 279° (W) 2,337 4.3 -6.4°
Enters shadow 06:27:12 - 268° (W) 2,628 4.6 -6.2°
